WetterOnline ( https://www.wetteronline.at )

Wetter aktuell Namest Nad Oslav

Aktuelles Wetter: Dukovany (401m)

6-stündlich | Neueste Meldungen
Ortszeit Temperatur Wetter
Sa, 20.07. 8:00 19.9° C leicht bewölkt
Sa, 20.07. 2:00 16.9° C fast wolkenlos
Fr, 19.07. 20:00 19.1° C wolkig
Fr, 19.07. 14:00 24.1° C wolkig
Fr, 19.07. 8:00 17.6° C leicht bewölkt
Fr, 19.07. 2:00 14.1° C -
Do, 18.07. 20:00 18.0° C wolkig
Do, 18.07. 14:00 24.0° C leicht bewölkt
Ortszeit Temperatur Wetter
Sa, 20.07. 13:00 27.2° C leicht bewölkt
Sa, 20.07. 12:00 25.5° C leicht bewölkt
Sa, 20.07. 11:00 24.3° C leicht bewölkt
Sa, 20.07. 10:00 22.4° C leicht bewölkt
Sa, 20.07. 9:00 21.9° C leicht bewölkt
Sa, 20.07. 8:00 19.9° C leicht bewölkt
Ortszeit Relative Feuchte Sichtweite
Sa, 20.07. 8:00 69% 17 km
Sa, 20.07. 2:00 85% 17 km
Fr, 19.07. 20:00 75% 25 km
Fr, 19.07. 14:00 49% 25 km
Fr, 19.07. 8:00 76% 17 km
Fr, 19.07. 2:00 89% 14 km
Do, 18.07. 20:00 77% 25 km
Do, 18.07. 14:00 39% 30 km
Ortszeit Relative Feuchte Sichtweite
Sa, 20.07. 13:00 46% 30 km
Sa, 20.07. 12:00 51% 30 km
Sa, 20.07. 11:00 55% 25 km
Sa, 20.07. 10:00 61% 25 km
Sa, 20.07. 9:00 61% 25 km
Sa, 20.07. 8:00 69% 17 km
Ortszeit Niederschlagsmenge Niederschlagsart
Sa, 20.07. 8:00 0.4 l/m2 in 12 Std. -
Sa, 20.07. 2:00 0.0 l/m2 in 6 Std. Schauer
Fr, 19.07. 20:00 0.4 l/m2 in 12 Std. -
Fr, 19.07. 14:00 0.4 l/m2 in 6 Std. Gewitter, Schauer
Fr, 19.07. 8:00 0.0 l/m2 in 12 Std. -
Fr, 19.07. 2:00 0.0 l/m2 in 6 Std. -
Do, 18.07. 20:00 0.8 l/m2 in 12 Std. Schauer
Do, 18.07. 14:00 0.0 l/m2 in 6 Std. -
Ortszeit Niederschlagsmenge Niederschlagsart
Sa, 20.07. 13:00 0.0 l/m2 in 1 Std. -
Sa, 20.07. 12:00 0.0 l/m2 in 1 Std. -
Sa, 20.07. 11:00 0.0 l/m2 in 1 Std. -
Sa, 20.07. 10:00 0.0 l/m2 in 1 Std. -
Sa, 20.07. 9:00 0.0 l/m2 in 1 Std. -
Sa, 20.07. 8:00 0.0 l/m2 in 1 Std. -
Ortszeit Stärke Spitze Richtung
km/h Bft. km/h Grad Sektor
Sa, 20.07. 8:00 11 2 - 80° O
Sa, 20.07. 2:00 11 2 - 350° N
Fr, 19.07. 20:00 11 2 50 10° N
Fr, 19.07. 14:00 18 3 - 90° O
Fr, 19.07. 8:00 7 2 - 90° O
Fr, 19.07. 2:00 7 2 - 10° N
Do, 18.07. 20:00 11 2 40 30° NO
Do, 18.07. 14:00 11 2 - 130° SO
Ortszeit Stärke Spitze Richtung
km/h Bft. km/h Grad Sektor
Sa, 20.07. 13:00 22 4 - 120° SO
Sa, 20.07. 12:00 22 4 - 120° SO
Sa, 20.07. 11:00 18 3 - 140° SO
Sa, 20.07. 10:00 18 3 - 90° O
Sa, 20.07. 9:00 14 3 - 80° O
Sa, 20.07. 8:00 11 2 - 80° O
Ortszeit Untergrenze Bedeckung Gattung
total tief tief mittel hoch
Sa, 20.07. 8:00 4200 m 5/8 2/8 - Ac Ci
Sa, 20.07. 2:00 2700 m - 1/8 - - -
Fr, 19.07. 20:00 3000 m 7/8 7/8 - As -
Fr, 19.07. 14:00 1800 m 6/8 6/8 Cu Ac -
Fr, 19.07. 8:00 3000 m 5/8 3/8 - Ac Ci
Fr, 19.07. 2:00 - - - - - -
Do, 18.07. 20:00 1230 m 6/8 3/8 Cu Ac -
Do, 18.07. 14:00 1500 m 4/8 4/8 Cu - -
Ortszeit Bedeckungsgrad in Achtel und Wolkenuntergrenze
Sa, 20.07. 13:00 2(1200m) 6(8400m)
Sa, 20.07. 12:00 1(1200m) 6(9000m)
Sa, 20.07. 11:00 2(2700m) 5(9000m)
Sa, 20.07. 10:00 2(2700m) 5(9000m)
Sa, 20.07. 9:00 2(3000m) 5(9000m)
Sa, 20.07. 8:00 2(4200m) 5(9000m)
Ortszeit Luftdruck NN (hPa) Tendenz (hPa in 3 Std.)
Sa, 20.07. 8:00 1016 + 0,2
Sa, 20.07. 2:00 1017 - 0,4
Fr, 19.07. 20:00 1016 + 1,2
Fr, 19.07. 14:00 1014 + 0,1
Fr, 19.07. 8:00 1015 + 0,5
Fr, 19.07. 2:00 1015 + 0,4
Do, 18.07. 20:00 1013 + 0,4
Do, 18.07. 14:00 1012 - 0,7
Ortszeit Luftdruck NN (hPa) Tendenz (hPa in 3 Std.)
Sa, 20.07. 13:00 1015 - 0,3
Sa, 20.07. 12:00 1016 - 0,2
Sa, 20.07. 11:00 1016 + 0,4
Sa, 20.07. 10:00 1016 + 0,3
Sa, 20.07. 9:00 1016 + 0,4
Sa, 20.07. 8:00 1016 + 0,2
Ortszeit Schneehöhe (cm)
Sa, 20.07. 8:00 -
Sa, 20.07. 2:00 -
Fr, 19.07. 20:00 -
Fr, 19.07. 14:00 -
Fr, 19.07. 8:00 -
Fr, 19.07. 2:00 -
Do, 18.07. 20:00 -
Do, 18.07. 14:00 -
Ortszeit Schneehöhe (cm)
Sa, 20.07. 13:00 -
Sa, 20.07. 12:00 -
Sa, 20.07. 11:00 -
Sa, 20.07. 10:00 -
Sa, 20.07. 9:00 -
Sa, 20.07. 8:00 -
Link zu dieser Seite / Seite empfehlen

Das Wetter in ...